This is the latest recevied weather packets stored in our database for station/object KE6YLF. If no packets are shown the sender has not sent any weather packets the latest 10 day(s).
| Time | Temp. | Humidity | Pressure | Rain* | Wind** | Luminosity | Snow |
|---|---|---|---|---|---|---|---|
| 1778351546 | 36.67° C | 15% | 1075 hPa | 0 mm | - | - | - |
| 1778351241 | 37.22° C | 15% | 1075.1 hPa | 0 mm | - | - | - |
| 1778350940 | 36.11° C | 15% | 1075 hPa | 0 mm | - | - | - |
| 1778350637 | 36.11° C | 15% | 1075.1 hPa | 0 mm | - | - | - |
| 1778350334 | 35.56° C | 15% | 1075.1 hPa | 0 mm | - | - | - |
| 1778350031 | 36.67° C | 15% | 1075.2 hPa | 0 mm | - | - | - |
| 1778349727 | 35.56° C | 15% | 1075 hPa | 0 mm | - | - | - |
| 1778349424 | 35° C | 16% | 1075.2 hPa | 0 mm | - | - | - |
| 1778349120 | 35° C | 16% | 1075.3 hPa | 0 mm | - | - | - |
| 1778348817 | 34.44° C | 16% | 1075.5 hPa | 0 mm | - | - | - |
| 1778348516 | 35° C | 16% | 1075.3 hPa | 0 mm | - | - | - |
| 1778348213 | 34.44° C | 16% | 1075.4 hPa | 0 mm | - | - | - |
| 1778347909 | 35° C | 15% | 1075.5 hPa | 0 mm | - | - | - |
| 1778347605 | 35° C | 16% | 1075.6 hPa | 0 mm | - | - | - |
| 1778347302 | 34.44° C | 16% | 1075.5 hPa | 0 mm | - | - | - |
| 1778346997 | 35.56° C | 15% | 1075.5 hPa | 0 mm | - | - | - |
| 1778346694 | 35° C | 15% | 1075.4 hPa | 0 mm | - | - | - |
| 1778346391 | 36.11° C | 15% | 1075.4 hPa | 0 mm | - | - | - |
| 1778346087 | 36.11° C | 15% | 1075.4 hPa | 0 mm | - | - | - |
| 1778345785 | 35.56° C | 15% | 1075.5 hPa | 0 mm | - | - | - |
| 1778345481 | 35° C | 15% | 1075.5 hPa | 0 mm | - | - | - |
| 1778345177 | 34.44° C | 15% | 1075.2 hPa | 0 mm | - | - | - |
| 1778344873 | 33.89° C | 15% | 1075.3 hPa | 0 mm | - | - | - |
| 1778344571 | 33.89° C | 15% | 1075.3 hPa | 0 mm | - | - | - |
| 1778344266 | 33.89° C | 15% | 1075.4 hPa | 0 mm | - | - | - |
* Rain latest hour (hover to see other rain measurements)
** Current wind speed in m/s (hover to see current wind gust speed)